Starlink 5448

operational
NORAD ID: 54770 Int'l Des: 2022-175 Owner: SPXS Country: US Constellation: starlink
LEOCIRCULAR

关于 Starlink 5448

正在加载描述...

实时位置

正在加载3D地球...

即将过境

高度历史

Altitude vs Time

uPlot chart will show altitude changes over time

两行轨道根数

1 54770U 22175N 25305.55949546 .00000881 00000-0 73453-4 0 9995
2 54770 53.2178 244.5029 0001510 86.2189 273.8976 15.08835203160787
Epoch: Nov 1, 2025 • Age: 17 hours

当前状态

高度 558.7 km
速度 7.58 km/s
星下点 -51.54°S, 7.97°W
发射日期 Dec 17, 2022
运行时间 2.8 years
类型 internet

技术详情

分类 Payload
质量 305.00 kg
干质量 290.00 kg
总质量 305.00 kg
长度 0.20 m
直径 2.80 m
跨度 9.00 m
形状 Box + pan
制造商 SPXS
平台类型 Starlink
阶段状态 In Orbit
所有者/国家 SPXS/US

大型星座

Loading constellations...